Weather History for KRDU - December, 2013

Change the Weather History Date:

Wednesday, December 11, 2013

  Actual Average Record
Temperature  
Mean Temperature 37 °F 44 °F  
Max Temperature 49 °F 55 °F 74 °F (2007)
Min Temperature 24 °F 34 °F 13 °F (1968)
Degree Days  
Heating Degree Days 28 21  
Month to date heating degree days 184 212  
Since 1 July heating degree days 836 793  
Cooling Degree Days 0 0  
Month to date cooling degree days 7 0  
Year to date cooling degree days 1559 1728  
Moisture  
Dew Point 24 °F    
Average Humidity 64    
Maximum Humidity 92    
Minimum Humidity 36    
Precipitation  
Precipitation 0.00 in 0.10 in 2.63 in (1936)
Month to date precipitation 0.83 1.10  
Year to date precipitation 45.61 41.37  
Snow  
Snow 0.00 in 0.00 in 9.10 in (1958)
Month to date snowfall 0.0 0.1  
Since 1 July snowfall T 0.2  
Snow Depth 0.00 in    
Sea Level Pressure  
Sea Level Pressure 30.37 in    
Wind  
Wind Speed 3 mph (SW)    
Max Wind Speed 12 mph    
Max Gust Speed 14 mph    
Visibility 10 miles    
Events Fog    
T = Trace of Precipitation, MM = Missing Value Source: NWS Daily Summary

Daily Weather History Graph

Daily Weather History Graph

Search for Another Location

Airport or City:

Trip Planner

Search our weather history database for the weather conditions in past years. The results will help you decide how hot, cold, wet, or windy it might be!

Date:

Astronomy

Dec. 11, 2013 Rise Set
Actual Time 7:15 AM EST 5:01 PM EST
Civil Twilight 6:47 AM EST 5:30 PM EST
Nautical Twilight 6:15 AM EST 6:01 PM EST
Astronomical Twilight 5:43 AM EST 6:33 PM EST
Moon 1:26 PM EST (12/11) 1:43 AM EST (12/11)
Length of Visible Light 10h 43m
Length of Day
9h 46m
Waxing Gibbous, 71% of the Moon is Illuminated
Dec 11
Waxing Gibbous
Dec 17
Full
Dec 25
Last Quarter
Jan 1
New
Jan 7
First Quarter

Hourly Weather History & Observations

Time (EST) Temp. Windchill Dew Point Humidity Pressure Visibility Wind Dir Wind Speed Gust Speed Precip Events Conditions
12:51 AM 28.0 °F - 24.1 °F 85% 30.34 in 10.0 mi Calm Calm - N/A   Partly Cloudy
1:51 AM 28.0 °F - 24.1 °F 85% 30.34 in 10.0 mi Calm Calm - N/A   Clear
2:51 AM 27.0 °F - 24.1 °F 89% 30.35 in 10.0 mi Calm Calm - N/A   Clear
3:51 AM 26.1 °F - 23.0 °F 88% 30.37 in 10.0 mi Calm Calm - N/A   Clear
4:36 AM 24.8 °F - 23.0 °F 93% 30.36 in 10.0 mi Calm Calm - N/A Fog Light Freezing Fog
4:51 AM 25.0 °F - 23.0 °F 92% 30.38 in 10.0 mi Calm Calm - N/A   Clear
5:51 AM 25.0 °F - 23.0 °F 92% 30.40 in 10.0 mi Calm Calm - N/A   Clear
6:51 AM 25.0 °F - 23.0 °F 92% 30.43 in 10.0 mi Calm Calm - N/A   Partly Cloudy
7:51 AM 26.1 °F - 23.0 °F 88% 30.43 in 10.0 mi Calm Calm - N/A   Partly Cloudy
8:51 AM 32.0 °F - 26.1 °F 79% 30.45 in 10.0 mi Calm Calm - N/A   Clear
9:51 AM 37.0 °F 33.3 °F 21.0 °F 52% 30.47 in 10.0 mi NNW 4.6 mph - N/A   Partly Cloudy
10:51 AM 39.9 °F - 21.0 °F 47% 30.46 in 10.0 mi Calm Calm - N/A   Partly Cloudy
11:51 AM 43.0 °F - 21.9 °F 43% 30.42 in 10.0 mi Calm Calm - N/A   Scattered Clouds
12:51 PM 46.0 °F 44.8 °F 23.0 °F 40% 30.39 in 10.0 mi Variable 3.5 mph - N/A   Scattered Clouds
1:51 PM 46.9 °F - 21.9 °F 37% 30.36 in 10.0 mi WSW 8.1 mph - N/A   Partly Cloudy
2:51 PM 48.9 °F - 24.1 °F 38% 30.34 in 10.0 mi SW 6.9 mph - N/A   Partly Cloudy
3:51 PM 48.0 °F - 23.0 °F 37% 30.32 in 10.0 mi WSW 6.9 mph - N/A   Partly Cloudy
4:51 PM 43.0 °F 40.3 °F 25.0 °F 49% 30.32 in 10.0 mi WSW 4.6 mph - N/A   Scattered Clouds
5:51 PM 39.0 °F 35.7 °F 25.0 °F 57% 30.32 in 10.0 mi SW 4.6 mph - N/A   Scattered Clouds
6:51 PM 37.9 °F 34.4 °F 26.1 °F 62% 30.32 in 10.0 mi SSW 4.6 mph - N/A   Partly Cloudy
7:51 PM 37.0 °F 33.3 °F 27.0 °F 67% 30.32 in 10.0 mi WSW 4.6 mph - N/A   Mostly Cloudy
8:51 PM 37.9 °F 32.7 °F 27.0 °F 65% 30.32 in 10.0 mi SW 6.9 mph - N/A   Mostly Cloudy
9:51 PM 37.9 °F 35.5 °F 26.1 °F 62% 30.32 in 10.0 mi WSW 3.5 mph - N/A   Mostly Cloudy
10:51 PM 36.0 °F 33.3 °F 27.0 °F 70% 30.31 in 10.0 mi SW 3.5 mph - N/A   Scattered Clouds
11:51 PM 34.0 °F 29.8 °F 26.1 °F 73% 30.30 in 10.0 mi SW 4.6 mph - N/A   Scattered Clouds